Wind_Speed
20 20 20 20 20 20 21 20 20 19 19 19 19 19 20 22 22 22 22 23 23 23 24 24 25 25 25 25 26 25 25 26 25 26 27 27 28 28 28 28 29 30 30
20 20 20 20 20 20 20 20 19 19 19 20 20 21 21 22 23 22 22 22 22 22 23 24 24 25 25 25 25 25 25 25 25 26 26 26 27 28 29 30 30 30 30
20 20 20 21 20 20 21 21 19 19 20 20 20 21 21 21 22 22 22 23 23 23 23 24 24 25 25 25 26 26 26 27 27 27 27 27 27 28 29 30 30 30 30
19 20 20 20 21 21 21 20 20 19 19 20 21 21 21 21 22 23 22 23 23 23 25 25 26 26 26 26 26 27 27 27 27 28 29 29 28 28 29 30 30 31 31
19 19 20 21 21 22 21 20 20 20 20 21 21 22 21 22 22 23 22 23 23 24 25 26 26 25 25 26 27 27 28 28 29 29 29 29 29 29 28 29 30 30 31
19 20 21 21 21 20 20 20 21 21 21 21 21 22 23 23 23 23 24 24 24 25 26 27 26 26 26 26 27 27 28 29 29 29 29 30 30 30 29 29 28 28 29
19 20 20 20 20 20 20 21 21 21 21 21 22 23 23 24 24 24 24 24 25 26 26 26 25 25 26 27 27 28 28 28 28 29 29 29 29 29 29 28 28 28 27
18 19 19 19 19 20 20 20 21 21 21 21 22 22 23 23 23 23 24 23 24 24 24 25 25 25 26 26 27 27 27 27 27 28 27 27 27 28 28 28 27 26 26
17 17 17 18 19 20 20 20 20 21 21 21 21 21 22 22 22 22 22 22 22 23 24 24 25 25 26 26 26 26 26 26 26 25 25 25 25 25 25 25 26 25 25
17 16 16 18 19 20 20 20 20 21 20 20 21 20 20 20 21 22 21 21 21 22 22 23 23 24 24 24 24 24 24 24 23 23 22 23 23 23 23 23 24 24 24
15 15 16 17 18 19 20 20 20 19 20 20 20 19 18 18 19 20 20 20 20 20 21 21 22 22 23 23 23 23 22 22 21 20 20 21 22 22 22 21 21 22 22
16 16 17 18 18 18 18 18 18 18 18 18 18 17 17 17 18 19 19 19 19 19 20 20 20 20 21 22 21 21 20 19 18 17 17 18 19 19 18 19 19 20 20
16 16 16 17 17 17 17 17 17 17 17 16 16 16 17 17 17 18 18 18 18 19 19 19 18 18 19 19 19 19 18 17 15 15 15 15 15 15 15 16 17 18 19
15 15 16 16 16 16 16 16 16 15 15 15 15 16 16 17 17 17 17 17 18 18 18 18 18 18 18 18 17 16 15 14 13 14 14 14 13 13 13 14 15 16 17
14 14 15 15 16 16 15 16 15 14 14 14 15 15 16 16 17 17 16 16 17 17 17 17 17 17 17 17 16 14 13 12 12 12 12 11 12 12 12 13 13 14 15
14 15 15 16 16 15 15 14 14 13 14 14 15 14 14 15 15 16 15 15 14 14 14 15 16 16 16 15 14 14 12 12 11 10 9 10 10 11 11 11 12 12 13
13 14 14 14 14 14 13 13 13 13 13 13 13 13 14 14 13 13 14 13 12 12 13 14 15 15 14 14 15 14 12 11 10 9 9 9 9 10 10 10 11 11 11
12 12 12 12 12 12 13 13 12 12 12 12 12 12 12 12 11 11 11 11 11 12 13 14 14 14 13 13 13 12 11 10 10 9 9 9 9 10 9 9 9 9 9
10 10 10 10 10 10 11 10 10 10 10 10 10 10 11 11 11 10 10 10 11 12 13 13 13 13 12 12 12 11 10 9 9 9 8 8 9 9 9 8 8 9 9
9 9 9 9 9 9 9 9 8 8 8 8 8 8 9 10 10 10 10 10 10 11 12 12 13 12 12 12 11 10 10 9 9 8 8 9 9 8 9 8 8 8 8
8 8 8 8 8 8 7 7 7 7 7 7 7 7 8 8 8 9 9 10 10 11 11 12 12 12 12 11 11 10 9 9 8 8 8 8 8 8 8 8 8 8 8
8 8 8 8 7 7 6 6 6 6 6 6 7 7 7 7 8 8 8 9 10 11 11 12 12 11 11 11 10 10 9 9 9 9 8 8 8 8 8 8 8 8 8
6 6 6 6 7 6 6 5 5 5 4 5 5 5 6 6 6 7 8 9 10 11 11 11 11 11 11 11 10 10 9 9 9 9 9 9 8 8 8 8 8 7 7
5 5 5 5 5 4 4 3 3 3 3 3 3 4 4 4 6 7 8 9 10 10 11 11 10 10 10 10 11 10 10 10 10 9 9 9 9 9 9 9 8 8 8
5 4 4 3 4 4 3 3 3 3 3 3 3 3 4 5 6 7 8 9 9 10 10 10 10 10 10 10 11 11 11 11 10 11 11 10 10 10 9 9 9 10 10
3 3 3 3 3 3 3 4 3 2 2 1 2 3 3 4 6 7 8 9 10 10 11 11 11 11 11 11 11 12 12 12 12 12 12 11 11 11 11 11 11 12 12
Wind_Direction
267 270 273 277 280 282 282 281 279 279 280 281 282 283 285 284 284 285 286 285 284 284 285 283 283 284 284 284 284 284 284 284 283 282 282 280 279 278 274 274 273 271 269
270 270 273 276 278 280 281 281 280 279 280 281 281 282 284 285 284 285 286 285 283 283 285 286 285 284 285 285 285 285 284 284 284 283 284 283 280 278 275 275 274 271 269
267 268 273 277 278 279 281 281 279 279 280 281 283 285 285 285 286 286 286 286 285 286 286 287 286 286 287 287 287 285 283 284 283 282 283 283 281 280 277 277 274 271 268
270 271 274 277 278 279 282 280 280 279 282 285 286 288 287 285 285 286 287 287 286 286 288 288 288 287 288 288 287 286 284 283 282 281 281 281 280 280 278 276 275 272 268
269 269 272 274 275 278 280 279 280 281 285 288 288 288 288 288 286 286 288 288 286 288 289 289 288 288 289 289 289 288 287 285 283 281 280 279 279 280 277 276 275 272 270
267 268 270 272 273 276 278 278 282 286 287 289 288 290 290 288 287 287 288 289 289 290 291 290 289 290 290 291 290 290 289 287 284 281 279 279 278 278 278 277 275 272 271
267 268 271 272 273 274 276 279 283 286 287 288 290 291 292 290 290 290 290 291 292 293 294 293 292 291 291 290 290 291 290 287 286 283 280 278 278 277 276 276 274 272 271
270 270 272 272 273 273 275 280 282 285 286 289 292 293 291 290 291 292 292 295 296 297 296 296 294 292 292 292 293 294 293 290 287 286 282 278 277 275 275 273 273 272 271
275 272 273 273 274 275 277 281 283 284 286 290 294 296 295 295 296 297 298 301 301 299 299 298 297 295 295 296 297 296 295 292 289 287 284 279 275 274 274 272 271 272 271
278 274 274 275 275 276 278 281 284 286 287 290 294 296 297 301 303 304 305 305 303 302 303 303 300 299 299 299 299 299 297 294 291 287 284 281 277 276 274 272 270 270 271
278 274 275 278 280 280 278 279 282 285 287 289 293 296 301 304 307 308 308 308 307 307 307 306 303 301 301 301 302 301 300 296 293 289 286 283 280 276 276 271 270 270 271
277 274 274 277 280 279 276 276 279 284 287 289 292 297 303 306 308 310 311 313 312 312 311 310 307 307 307 305 303 304 302 300 296 293 290 288 286 280 275 272 272 273 273
277 276 274 275 275 273 272 274 278 282 285 288 292 298 303 306 310 312 313 314 314 315 314 314 315 313 312 310 307 306 304 303 298 294 295 295 293 288 285 280 277 276 274
277 276 274 274 275 273 271 271 275 278 284 291 295 299 302 306 309 312 314 316 315 314 316 317 316 316 317 318 316 315 313 311 306 301 301 301 301 299 293 290 287 281 279
276 276 274 273 275 274 272 272 274 281 288 294 298 301 303 305 307 312 315 317 317 318 318 321 322 322 323 325 326 322 321 319 315 310 307 307 304 301 296 292 291 289 286
279 276 273 272 270 269 271 272 277 285 292 296 297 298 301 304 307 310 316 321 322 324 327 327 326 327 328 331 331 328 323 321 321 319 315 313 312 310 308 305 303 302 298
284 281 279 272 266 267 273 274 276 280 288 294 295 298 300 305 309 313 320 325 329 331 332 333 331 330 331 330 331 333 330 328 327 325 321 320 322 324 322 319 316 316 314
287 286 283 275 273 275 277 278 276 279 283 289 294 300 304 307 313 319 323 326 330 334 336 338 338 337 338 338 338 335 334 331 332 330 327 326 327 329 328 329 327 326 324
284 285 280 274 271 273 277 275 272 275 280 289 299 304 306 308 314 318 319 324 328 332 335 338 340 340 340 340 340 341 342 337 335 337 333 328 328 327 325 326 326 326 326
282 283 279 277 273 272 275 270 271 278 283 292 300 305 309 315 317 319 322 325 327 330 335 338 342 344 345 346 346 346 348 346 341 339 336 334 333 332 331 330 330 330 326
280 281 279 276 273 272 275 272 282 283 286 292 300 307 312 317 320 320 323 325 327 332 336 340 342 345 347 349 350 352 353 351 350 349 346 348 349 347 346 344 341 337 335
282 281 279 276 273 272 276 274 277 284 290 292 298 306 310 315 320 323 327 329 332 336 338 340 343 348 351 351 352 354 354 351 348 347 353 355 353 352 349 345 343 343 345
290 284 277 272 270 269 271 275 270 279 288 296 305 315 318 322 328 331 333 334 334 334 335 339 342 346 350 349 346 347 349 348 346 345 344 348 347 347 349 347 344 344 343
294 290 282 275 267 263 264 270 264 261 276 299 316 325 328 330 336 340 342 343 342 340 340 341 343 345 348 348 346 346 346 345 345 344 341 338 335 336 338 338 336 333 333
283 283 278 263 258 251 245 248 265 260 277 295 308 317 323 328 337 342 343 345 347 348 350 349 347 346 345 345 346 344 344 344 343 341 339 337 331 327 325 324 323 323 321
284 273 260 253 253 246 250 254 263 265 273 298 321 332 340 339 341 343 343 341 343 348 351 352 351 349 346 346 345 343 342 342 341 338 333 330 327 324 320 316 313 312 312
Height
5854 5854 5854 5853 5852 5851 5850 5849 5848 5847 5846 5844 5843 5842 5840 5838 5836 5835 5833 5831 5829 5827 5825 5824 5822 5820 5818 5816 5815 5813 5812 5810 5809 5807 5806 5805 5804 5803 5803 5802 5802 5801 5801
5850 5849 5849 5849 5848 5847 5846 5844 5843 5842 5841 5840 5838 5836 5835 5833 5831 5829 5827 5825 5823 5821 5819 5817 5816 5814 5812 5810 5808 5807 5805 5804 5802 5801 5799 5798 5797 5796 5795 5795 5794 5794 5793
5845 5845 5844 5844 5843 5842 5841 5840 5839 5837 5836 5835 5833 5831 5829 5827 5825 5823 5821 5819 5817 5815 5814 5812 5809 5808 5806 5804 5802 5800 5799 5797 5796 5794 5793 5791 5790 5789 5788 5787 5786 5785 5785
5840 5840 5840 5839 5838 5838 5836 5835 5834 5832 5831 5829 5827 5825 5823 5822 5820 5818 5816 5814 5811 5809 5807 5805 5803 5801 5799 5797 5795 5793 5791 5790 5788 5787 5785 5784 5782 5781 5781 5779 5778 5777 5777
5836 5835 5835 5834 5834 5833 5831 5830 5829 5827 5826 5824 5822 5820 5818 5816 5814 5812 5810 5808 5805 5803 5801 5799 5797 5794 5792 5790 5788 5786 5784 5782 5780 5779 5777 5776 5775 5773 5773 5772 5770 5769 5768
5831 5830 5829 5829 5828 5828 5826 5825 5824 5822 5820 5819 5817 5814 5812 5810 5808 5806 5804 5801 5799 5797 5794 5792 5790 5788 5785 5783 5781 5779 5777 5774 5772 5771 5769 5768 5767 5766 5764 5763 5762 5761 5760
5825 5825 5824 5823 5823 5822 5821 5820 5819 5817 5815 5813 5811 5809 5806 5804 5802 5800 5798 5795 5793 5790 5788 5785 5783 5781 5778 5776 5774 5771 5769 5767 5765 5763 5761 5760 5759 5757 5756 5755 5754 5753 5752
5820 5819 5818 5818 5817 5817 5816 5815 5814 5812 5810 5808 5806 5804 5801 5798 5796 5794 5792 5789 5787 5784 5781 5779 5776 5774 5772 5769 5767 5764 5762 5759 5757 5755 5753 5752 5751 5749 5748 5747 5746 5745 5744
5814 5814 5813 5813 5812 5812 5811 5810 5809 5807 5806 5803 5801 5799 5796 5794 5791 5789 5786 5783 5781 5778 5776 5773 5770 5768 5765 5762 5760 5757 5754 5752 5749 5747 5746 5744 5743 5742 5740 5739 5738 5738 5737
5809 5808 5808 5807 5807 5806 5805 5804 5804 5802 5801 5799 5796 5794 5792 5790 5787 5784 5781 5778 5776 5773 5770 5767 5764 5761 5758 5756 5753 5750 5747 5745 5742 5740 5739 5737 5736 5734 5733 5732 5731 5730 5730
5804 5803 5803 5802 5801 5800 5800 5799 5798 5797 5796 5794 5792 5790 5788 5785 5783 5780 5777 5774 5771 5767 5764 5761 5758 5755 5752 5749 5747 5744 5741 5738 5736 5734 5733 5731 5729 5728 5727 5726 5724 5724 5724
5799 5798 5798 5797 5796 5795 5794 5794 5793 5792 5791 5789 5788 5786 5783 5781 5779 5776 5772 5769 5766 5763 5760 5757 5753 5750 5747 5744 5741 5738 5735 5733 5731 5729 5727 5725 5724 5722 5721 5720 5719 5718 5718
5794 5793 5792 5792 5791 5790 5789 5789 5788 5787 5786 5785 5783 5782 5780 5777 5775 5772 5769 5765 5762 5759 5756 5753 5749 5746 5742 5739 5736 5733 5730 5728 5726 5724 5722 5721 5719 5718 5716 5715 5714 5713 5712
5788 5788 5787 5787 5786 5785 5785 5784 5783 5783 5782 5781 5779 5778 5776 5773 5771 5768 5765 5762 5759 5756 5752 5749 5745 5742 5738 5735 5732 5729 5726 5724 5722 5721 5719 5717 5716 5714 5713 5711 5710 5709 5708
5783 5783 5782 5781 5781 5780 5780 5780 5779 5779 5778 5777 5775 5774 5772 5769 5767 5764 5761 5758 5755 5753 5749 5746 5742 5739 5736 5733 5730 5727 5724 5722 5719 5718 5716 5714 5713 5711 5710 5708 5707 5705 5704
5779 5778 5777 5776 5776 5776 5775 5775 5775 5775 5774 5772 5771 5769 5768 5766 5763 5761 5758 5755 5752 5750 5747 5744 5740 5737 5734 5731 5728 5725 5722 5720 5717 5715 5714 5712 5710 5709 5707 5705 5703 5702 5700
5774 5773 5772 5771 5771 5771 5771 5771 5771 5770 5770 5768 5767 5766 5764 5762 5760 5758 5756 5753 5750 5748 5745 5742 5738 5735 5732 5729 5726 5723 5721 5718 5716 5714 5712 5710 5709 5707 5705 5703 5701 5699 5697
5770 5769 5768 5767 5768 5768 5767 5767 5767 5766 5766 5765 5764 5763 5761 5759 5758 5756 5754 5751 5749 5746 5743 5740 5737 5733 5730 5728 5725 5722 5719 5717 5715 5713 5711 5709 5707 5705 5703 5702 5700 5698 5696
5766 5766 5765 5764 5764 5764 5764 5764 5763 5763 5763 5762 5761 5760 5758 5757 5755 5754 5752 5750 5747 5745 5742 5738 5735 5732 5729 5726 5724 5721 5718 5716 5714 5712 5710 5707 5706 5704 5702 5700 5698 5697 5695
5763 5762 5762 5761 5761 5761 5761 5760 5760 5760 5760 5759 5758 5757 5756 5755 5753 5752 5750 5747 5745 5743 5740 5737 5734 5731 5728 5725 5723 5720 5718 5715 5713 5711 5708 5706 5705 5703 5701 5699 5697 5696 5694
5760 5759 5759 5758 5758 5758 5758 5758 5758 5758 5757 5757 5756 5755 5754 5753 5751 5750 5748 5746 5743 5741 5738 5735 5733 5730 5727 5724 5722 5719 5717 5715 5712 5710 5708 5706 5704 5702 5700 5698 5697 5695 5693
5757 5756 5756 5756 5756 5756 5756 5756 5755 5755 5755 5754 5754 5753 5752 5751 5750 5748 5746 5744 5742 5739 5737 5734 5732 5729 5726 5724 5721 5719 5717 5714 5712 5710 5707 5706 5703 5701 5699 5698 5696 5694 5692
5754 5754 5753 5753 5753 5753 5754 5754 5753 5753 5753 5752 5752 5751 5750 5749 5748 5746 5744 5742 5740 5738 5735 5733 5731 5728 5726 5723 5721 5718 5716 5714 5711 5709 5707 5705 5703 5701 5699 5697 5695 5693 5691
5752 5752 5751 5751 5751 5752 5752 5752 5752 5751 5751 5751 5750 5750 5749 5748 5746 5745 5743 5741 5739 5736 5734 5732 5730 5727 5725 5723 5720 5718 5715 5713 5711 5709 5706 5704 5702 5700 5698 5696 5694 5692 5691
5751 5750 5750 5750 5750 5750 5750 5750 5750 5750 5750 5749 5749 5748 5747 5746 5745 5744 5742 5740 5738 5736 5734 5731 5729 5727 5724 5722 5719 5717 5714 5712 5710 5707 5705 5703 5701 5699 5697 5695 5694 5691 5689
5749 5749 5749 5749 5749 5749 5749 5749 5749 5749 5749 5748 5748 5747 5746 5745 5744 5743 5741 5739 5737 5735 5733 5731 5728 5726 5724 5721 5719 5716 5713 5711 5708 5706 5704 5701 5699 5697 5695 5693 5691 5690 5688